Regional Weather Roundup
Issued by NWS

Home | Current Version | Previous Version | Graphics & Text | Print | Product List | Glossary On
Versions: 1 2 3 4 5 6 7 8 9 10 11 12 13 14 15 16 17 18 19 20 21 22 23 24 25 26 27 28 29 30 31 32 33 34 35 36 37 38 39 40 41 42 43 44 45 46 47 48 49 50
000
ASUS45 KABQ 272110
RWRNM
WEATHER ROUNDUP FOR NEW MEXICO
NATIONAL WEATHER SERVICE ALBUQUERQUE NM
200 PM MST SAT DEC 27 2014

NOTE: "FAIR" MEANS FEW OR NO CLOUDS BELOW 12,000 FEET AGL WITH NO
       SIGNIFICANT WEATHER OR OBSTRUCTIONS TO VISION.

      THIS PRODUCT IS RELEASED AS TWO VERSIONS.  ONE VERSION NEAR
      THE TOP OF THE HOUR CONTAINING PRELIMINARY DATA FROM ALBUQUERQUE
      AND OTHER STATIONS.  A FINAL VERSION WITH ADDITIONAL DATA IS
      ISSUED ABOUT 10 MINUTES AFTER THE HOUR.

NMZ501-503-504-510>518-272200-
NORTHWEST PLATEAU/NORTHCENTRAL MOUNTAINS

CITY           SKY/WX    TMP DP  RH WIND       PRES   REMARKS
FARMINGTON     SUNNY     24  12  60 CALM      30.23F
LOS ALAMOS     PTSUNNY   24  12  59 CALM      30.14S
SANTA FE       MOSUNNY   28  15  58 VRB3      30.14F
TAOS           SUNNY     21   9  58 CALM      30.14S
ANGEL FIRE     FAIR      19   6  55 W12       30.07R WCI   7

$$
NMZ402-403-502-505>509-272200-
WESTCENTRAL MOUNTAINS/SOUTHWEST MOUNTAINS

CITY           SKY/WX    TMP DP  RH WIND       PRES   REMARKS
GALLUP         SUNNY     24  10  55 W3        30.21F
GRANTS         SUNNY     30   6  36 N8G20     30.20S WCI  23
SILVER CITY    SUNNY     37  12  35 W3        30.18S

$$
NMZ407-409-411-412-272200-
SOUTHERN DESERTS

CITY           SKY/WX    TMP DP  RH WIND       PRES   REMARKS
LORDSBURG      FAIR      43  25  49 SE9       30.18F
DEMING         SUNNY     40  25  55 SE6       30.19F
LAS CRUCES     PTSUNNY   41  27  57 NW6       30.19F
HOLLOMAN AFB   SUNNY     42  23  47 W1        30.18F
ALAMOGORDO     PTSUNNY   39  25  56 NW6       30.19F WCI  35
T OR C         SUNNY     41  11  29 NE8       30.17F

$$
NMZ519>523-272200-
CENTRAL VALLEYS/CENTRAL HIGHLANDS

CITY           SKY/WX    TMP DP  RH WIND       PRES   REMARKS
ALBUQUERQUE    MOSUNNY   36  11  35 SW9       30.20S WCI  29
DOUBLE EAGLE   MOSUNNY   34  12  40 W7        30.19S WCI  28
MORIARTY ARPT  FAIR      31  19  60 S6        30.17S WCI  26
CLINES CORNERS SUNNY     26  14  60 NW10      30.11S WCI  16
BELEN          FAIR      36  13  40 CALM      30.20F
SOCORRO        PTSUNNY   39  13  33 N12       30.20F WCI  32

$$
NMZ524>526-539-540-272200-
SOUTHCENTRAL MOUNTAINS

CITY           SKY/WX    TMP DP  RH WIND       PRES   REMARKS
RUIDOSO        MOSUNNY   28  14  54 CALM      30.15S

$$
NMZ527>531-272200-
NORTHEAST HIGHLANDS/NORTHEAST PLAINS

CITY           SKY/WX    TMP DP  RH WIND       PRES   REMARKS
LAS VEGAS      SUNNY     25  17  72 S15       30.09F WCI  13
RATON          MOSUNNY   18  13  80 SW9       30.11F WCI   7
CLAYTON        SUNNY     32  17  54 S10       30.15F WCI  24

$$
NMZ532>537-272200-
EASTCENTRAL PLAINS

CITY           SKY/WX    TMP DP  RH WIND       PRES   REMARKS
TUCUMCARI      CLOUDY    28  18  66 CALM      30.23F
CANNON AFB     SUNNY     33  17  50 VRB5      30.21F WCI  29
CLOVIS AIRPORT SUNNY     34  16  47 NW6       30.21F WCI  29

$$
NMZ028-029-538-272200-
SOUTHEAST PLAINS

CITY           SKY/WX    TMP DP  RH WIND       PRES   REMARKS
ROSWELL        SUNNY     40  21  46 N3        30.23F
ARTESIA        MOSUNNY   37  25  60 N7        30.25F WCI  32
CARLSBAD       LGT RAIN  36  30  79 N8        30.24S WCI  30
HOBBS          MOSUNNY   36  30  80 N9G16     30.24F WCI  29


$$


USA.gov is the U.S. government's official web portal to all federal, state and local government web resources and services.